Weather History for KNTD - December, 2012

Change the Weather History Date:

Saturday, December 15, 2012

  Actual Average Record
Temperature  
Mean Temperature 50 °F -  
Max Temperature 59 °F 62 °F 84 °F (2013)
Min Temperature 42 °F 44 °F 36 °F (2001)
Degree Days  
Heating Degree Days 14    
Moisture  
Dew Point 45 °F    
Average Humidity 80    
Maximum Humidity 100    
Minimum Humidity 50    
Precipitation  
Precipitation 0.00 in - - ()
Sea Level Pressure  
Sea Level Pressure 30.04 in    
Wind  
Wind Speed 5 mph (NNW)    
Max Wind Speed 14 mph    
Max Gust Speed 24 mph    
Visibility 7 miles    
Events      
Averages and records for this station are not official NWS values.
T = Trace of Precipitation, MM = Missing Value Source: NWS Daily Summary

Daily Weather History Graph

Daily Weather History Graph

Search for Another Location

Airport or City:

Trip Planner

Search our weather history database for the weather conditions in past years. The results will help you decide how hot, cold, wet, or windy it might be!

Date:

Astronomy

Dec. 15, 2012 Rise Set
Actual Time 6:55 AM PST 4:48 PM PST
Civil Twilight 6:27 AM PST 5:16 PM PST
Nautical Twilight 5:56 AM PST 5:47 PM PST
Astronomical Twilight 5:25 AM PST 6:18 PM PST
Moon 8:56 AM PST (12/15) 7:52 PM PST (12/15)
Length of Visible Light 10h 49m
Length of Day
9h 53m
Waxing Crescent, 9% of the Moon is Illuminated
Dec 15
Waxing Crescent
Dec 19
First Quarter
Dec 28
Full
Jan 4
Last Quarter
Jan 11
New

Hourly Weather History & Observations

Time (PST) Temp. Windchill Dew Point Humidity Pressure Visibility Wind Dir Wind Speed Gust Speed Precip Events Conditions
12:54 AM 46.0 °F 44.8 °F 44.1 °F 93% 29.99 in - North 3.5 mph - N/A   Clear
1:12 AM 46.4 °F 45.2 °F 44.6 °F 93% 29.99 in - North 3.5 mph - N/A   Mostly Cloudy
1:54 AM 46.0 °F 43.1 °F 44.1 °F 93% 30.00 in - North 5.8 mph - N/A   Overcast
2:47 AM 46.4 °F 44.3 °F 44.6 °F 93% 30.01 in - North 4.6 mph - N/A   Overcast
2:54 AM 46.9 °F - 44.1 °F 90% 30.02 in - North 4.6 mph - N/A   Overcast
3:54 AM 45.0 °F 41.8 °F 43.0 °F 93% 30.03 in - North 5.8 mph - N/A   Partly Cloudy
4:54 AM 43.0 °F 40.3 °F 42.1 °F 97% 30.02 in - NNE 4.6 mph - N/A   Scattered Clouds
5:54 AM 42.1 °F 39.2 °F 42.1 °F 100% 30.04 in 7.0 mi North 4.6 mph - N/A   Partly Cloudy
6:54 AM 42.1 °F 40.2 °F 41.0 °F 96% 30.04 in 7.0 mi NNE 3.5 mph - N/A   Partly Cloudy
7:54 AM 46.0 °F 43.1 °F 43.0 °F 89% 30.05 in 7.0 mi North 5.8 mph - N/A   Partly Cloudy
8:54 AM 50.0 °F - 44.1 °F 80% 30.07 in 7.0 mi NNE 4.6 mph - N/A   Partly Cloudy
9:54 AM 55.0 °F - 46.9 °F 74% 30.09 in 7.0 mi NE 3.5 mph - N/A   Scattered Clouds
10:54 AM 57.9 °F - 48.9 °F 72% 30.07 in 7.0 mi NNW 3.5 mph - N/A   Scattered Clouds
11:54 AM 57.9 °F - 50.0 °F 75% 30.05 in 7.0 mi WNW 5.8 mph - N/A   Scattered Clouds
12:54 PM 59.0 °F - 40.3 °F 50% 30.03 in 7.0 mi WNW 9.2 mph - N/A   Scattered Clouds
1:54 PM 57.0 °F - 39.2 °F 51% 30.02 in 7.0 mi WNW 6.9 mph - N/A   Mostly Cloudy
2:54 PM 57.0 °F - 48.9 °F 74% 30.03 in 7.0 mi Calm Calm - N/A   Mostly Cloudy
3:54 PM 57.0 °F - 48.9 °F 74% 30.01 in - Variable 3.5 mph - N/A   Clear
4:54 PM 55.9 °F - 46.9 °F 72% 30.01 in - East 4.6 mph - N/A   Mostly Cloudy
5:54 PM 55.9 °F - 46.9 °F 72% 30.01 in - Calm Calm - N/A   Mostly Cloudy
6:54 PM 55.9 °F - 48.0 °F 75% 30.04 in - West 12.7 mph - N/A   Partly Cloudy
7:54 PM 55.9 °F - 48.0 °F 75% 30.06 in - West 11.5 mph - N/A   Overcast
8:54 PM 57.0 °F - 48.0 °F 72% 30.07 in - WNW 13.8 mph 24.2 mph N/A   Overcast
9:54 PM 55.9 °F - 46.9 °F 72% 30.09 in - West 10.4 mph - N/A   Overcast
10:54 PM 55.0 °F - 46.9 °F 74% 30.10 in - WSW 4.6 mph - N/A   Overcast
11:54 PM 54.0 °F - 46.9 °F 77% 30.09 in - Calm Calm - N/A   Overcast